Temp
-10 -10 -10 -10 -10 -10 -10 -10 -10 -10 -10 -10 -10 -10 -10 -10 -10 -10 -10 -10 -10 -10 -10 -10 -10 -10 -10 -10 -10 -10 -10 -10 -10 -10 -10 -10 -10 -10 -10 -10 -11 -11 -11 -11 -11
-10 -10 -10 -10 -10 -10 -10 -10 -10 -10 -10 -10 -10 -10 -10 -10 -10 -10 -10 -10 -10 -10 -10 -10 -10 -10 -10 -10 -10 -10 -10 -10 -10 -10 -10 -10 -10 -10 -10 -11 -11 -11 -11 -11 -11
-10 -10 -10 -10 -10 -10 -10 -10 -10 -10 -10 -10 -10 -10 -10 -10 -10 -10 -10 -10 -10 -10 -10 -10 -10 -10 -10 -10 -10 -10 -10 -10 -10 -10 -10 -10 -10 -10 -10 -11 -11 -11 -11 -11 -11
-11 -11 -11 -11 -11 -11 -10 -10 -10 -10 -10 -10 -10 -10 -10 -10 -10 -10 -10 -10 -10 -10 -10 -10 -10 -10 -10 -10 -10 -10 -10 -10 -10 -10 -10 -10 -10 -10 -11 -11 -11 -11 -11 -11 -11
-11 -11 -11 -11 -11 -11 -11 -11 -10 -10 -10 -10 -10 -10 -10 -10 -10 -10 -10 -10 -10 -10 -10 -10 -10 -10 -10 -10 -10 -10 -10 -10 -10 -10 -10 -10 -10 -10 -11 -10 -10 -11 -11 -11 -11
-12 -12 -11 -11 -11 -11 -11 -11 -11 -11 -10 -10 -10 -10 -10 -10 -10 -10 -10 -10 -10 -10 -10 -10 -10 -10 -10 -10 -10 -10 -10 -10 -10 -10 -10 -11 -10 -10 -10 -10 -10 -10 -10 -10 -10
-12 -12 -12 -12 -11 -11 -11 -11 -11 -11 -11 -11 -10 -10 -10 -10 -10 -10 -10 -10 -10 -10 -10 -10 -10 -10 -10 -10 -10 -10 -10 -10 -10 -11 -10 -10 -10 -10 -10 -10 -10 -10 -10 -10 -10
-13 -13 -12 -12 -12 -12 -12 -11 -11 -11 -11 -11 -11 -11 -10 -10 -10 -10 -10 -10 -10 -10 -10 -10 -10 -10 -10 -10 -10 -10 -10 -10 -10 -11 -10 -10 -11 -10 -10 -10 -10 -10 -10 -10 -10
-13 -13 -13 -12 -12 -12 -12 -12 -12 -11 -11 -11 -11 -11 -10 -11 -11 -11 -11 -11 -10 -10 -10 -10 -10 -10 -10 -10 -10 -10 -10 -11 -11 -11 -11 -10 -10 -10 -10 -10 -10 -10 -10 -10 -10
-13 -13 -13 -13 -13 -12 -12 -12 -12 -12 -11 -11 -11 -11 -11 -11 -11 -11 -11 -11 -11 -11 -10 -10 -10 -10 -10 -11 -11 -11 -10 -11 -11 -11 -11 -11 -10 -10 -10 -10 -10 -10 -10 -10 -10
-14 -13 -13 -13 -13 -13 -13 -12 -12 -12 -12 -12 -11 -11 -11 -11 -11 -11 -11 -11 -11 -11 -11 -11 -11 -10 -11 -11 -11 -11 -11 -11 -11 -11 -11 -11 -10 -10 -10 -10 -10 -10 -10 -10 -10
-14 -14 -13 -13 -13 -13 -13 -13 -13 -12 -12 -12 -12 -11 -11 -11 -11 -11 -11 -11 -11 -11 -11 -11 -11 -11 -11 -11 -11 -11 -11 -11 -11 -11 -11 -10 -10 -10 -10 -10 -10 -10 -10 -10 -10
-15 -15 -14 -14 -13 -13 -13 -13 -13 -13 -12 -12 -12 -11 -11 -11 -11 -11 -12 -12 -12 -12 -12 -12 -11 -12 -12 -12 -12 -12 -11 -12 -11 -11 -11 -10 -9 -10 -10 -10 -10 -10 -10 -10 -10
-14 -15 -15 -14 -14 -14 -13 -15 -14 -14 -13 -12 -12 -11 -11 -12 -11 -11 -12 -12 -12 -12 -12 -12 -12 -12 -12 -12 -12 -12 -12 -12 -12 -11 -11 -10 -9 -9 -10 -11 -10 -10 -10 -10 -10
-15 -15 -14 -15 -14 -14 -15 -15 -15 -15 -14 -12 -11 -11 -12 -12 -12 -12 -12 -12 -12 -12 -12 -12 -12 -12 -12 -12 -12 -12 -12 -12 -12 -12 -11 -11 -10 -9 -10 -10 -11 -10 -10 -10 -11
-15 -15 -15 -14 -14 -15 -15 -15 -16 -16 -12 -11 -11 -11 -12 -12 -12 -12 -12 -12 -12 -12 -12 -12 -12 -12 -12 -13 -13 -12 -12 -12 -12 -12 -11 -11 -11 -9 -9 -11 -11 -11 -11 -11 -11
-15 -15 -14 -15 -15 -15 -14 -15 -15 -15 -11 -11 -11 -11 -12 -12 -12 -12 -12 -12 -12 -12 -12 -13 -12 -13 -13 -13 -13 -13 -13 -13 -12 -11 -11 -11 -10 -9 -10 -11 -11 -11 -11 -11 -12
-15 -15 -15 -16 -15 -15 -15 -15 -15 -10 -11 -11 -12 -11 -11 -12 -12 -12 -13 -13 -13 -13 -13 -13 -13 -13 -13 -13 -13 -13 -13 -13 -13 -12 -11 -11 -10 -10 -11 -11 -11 -12 -12 -12 -12
-16 -16 -15 -15 -15 -15 -15 -14 -13 -9 -13 -12 -12 -12 -11 -12 -12 -12 -13 -13 -13 -13 -13 -13 -13 -13 -14 -14 -14 -13 -13 -14 -13 -13 -12 -11 -10 -10 -11 -11 -12 -12 -12 -12 -13
-17 -16 -16 -15 -15 -15 -16 -15 -12 -12 -14 -14 -12 -13 -12 -12 -13 -13 -13 -12 -13 -14 -14 -14 -14 -14 -14 -14 -13 -13 -13 -14 -13 -13 -12 -11 -11 -10 -11 -12 -12 -12 -13 -13 -13
-17 -17 -15 -15 -16 -15 -15 -14 -12 -13 -14 -15 -13 -13 -13 -13 -13 -13 -13 -13 -13 -14 -15 -14 -14 -14 -13 -13 -14 -14 -13 -14 -14 -13 -13 -12 -11 -10 -11 -11 -12 -12 -13 -13 -13
-17 -16 -15 -16 -15 -15 -15 -12 -13 -13 -14 -14 -14 -13 -13 -15 -14 -14 -13 -13 -14 -14 -14 -15 -15 -14 -13 -13 -14 -13 -13 -13 -13 -12 -13 -13 -10 -12 -11 -12 -12 -13 -13 -13 -13
-18 -17 -17 -16 -16 -16 -15 -14 -14 -14 -13 -13 -13 -13 -15 -15 -14 -14 -13 -13 -14 -14 -15 -15 -15 -15 -14 -12 -12 -12 -13 -14 -14 -14 -12 -13 -10 -12 -12 -13 -13 -13 -13 -14 -13
-19 -18 -17 -17 -16 -16 -15 -15 -15 -14 -14 -14 -13 -15 -15 -15 -14 -14 -14 -14 -14 -15 -15 -15 -15 -14 -13 -14 -14 -13 -14 -14 -14 -14 -11 -11 -12 -13 -13 -13 -14 -14 -14 -14 -14
-20 -19 -18 -17 -16 -16 -16 -15 -15 -15 -14 -15 -15 -15 -14 -15 -15 -13 -14 -14 -14 -15 -15 -15 -15 -14 -13 -14 -15 -14 -14 -14 -14 -12 -14 -11 -13 -14 -14 -14 -14 -14 -14 -14 -15
-20 -18 -18 -17 -17 -16 -16 -15 -15 -15 -15 -14 -14 -13 -16 -15 -14 -14 -15 -15 -15 -15 -15 -15 -14 -15 -14 -14 -15 -14 -14 -13 -12 -13 -13 -12 -12 -14 -14 -15 -15 -15 -15 -15 -15
-20 -19 -18 -17 -17 -17 -17 -15 -15 -15 -16 -15 -15 -16 -16 -14 -15 -16 -16 -15 -15 -15 -15 -15 -15 -15 -14 -15 -15 -15 -11 -14 -13 -13 -14 -14 -12 -15 -15 -15 -15 -15 -15 -15 -15
Height
5827 5830 5833 5835 5838 5840 5842 5845 5848 5850 5852 5853 5854 5856 5858 5859 5861 5862 5863 5864 5865 5866 5866 5867 5868 5869 5869 5869 5869 5869 5870 5870 5869 5869 5868 5867 5866 5866 5866 5865 5865 5864 5864 5863 5863
5822 5826 5829 5832 5835 5837 5839 5842 5844 5847 5849 5850 5853 5854 5856 5858 5859 5860 5861 5862 5863 5863 5864 5865 5866 5866 5867 5867 5868 5867 5867 5867 5867 5866 5865 5865 5864 5864 5864 5864 5863 5862 5862 5861 5861
5818 5821 5824 5828 5830 5833 5836 5838 5840 5843 5845 5847 5849 5851 5853 5855 5856 5857 5858 5859 5860 5861 5861 5862 5863 5864 5864 5864 5865 5864 5864 5863 5864 5863 5862 5862 5862 5862 5861 5861 5861 5860 5859 5859 5859
5812 5816 5819 5822 5826 5828 5831 5834 5836 5839 5841 5843 5845 5847 5849 5850 5854 5853 5855 5856 5857 5858 5858 5859 5860 5860 5861 5861 5861 5861 5861 5860 5859 5859 5858 5858 5858 5859 5858 5858 5858 5858 5857 5857 5856
5806 5810 5814 5817 5820 5823 5826 5829 5832 5834 5837 5839 5841 5842 5844 5846 5848 5850 5851 5852 5853 5854 5854 5855 5856 5856 5857 5857 5857 5857 5857 5856 5855 5855 5855 5855 5855 5855 5855 5854 5854 5855 5854 5854 5853
5799 5803 5806 5810 5814 5817 5820 5823 5826 5829 5831 5834 5835 5837 5839 5842 5843 5845 5846 5848 5849 5850 5850 5851 5851 5852 5852 5853 5853 5852 5852 5851 5851 5851 5850 5850 5850 5851 5850 5850 5850 5851 5850 5850 5850
5792 5796 5799 5803 5807 5810 5813 5817 5819 5822 5825 5827 5830 5831 5834 5836 5838 5840 5841 5842 5843 5844 5845 5846 5846 5847 5848 5848 5848 5847 5847 5847 5846 5846 5846 5845 5846 5846 5846 5846 5846 5846 5845 5845 5845
5783 5788 5792 5795 5799 5802 5806 5809 5812 5815 5818 5820 5823 5825 5828 5830 5832 5834 5835 5837 5838 5839 5840 5840 5840 5841 5842 5842 5842 5842 5842 5841 5841 5840 5841 5840 5840 5841 5840 5841 5841 5841 5842 5842 5841
5774 5778 5783 5787 5791 5794 5798 5801 5804 5807 5810 5813 5815 5818 5821 5824 5826 5827 5828 5830 5831 5832 5833 5834 5835 5835 5836 5836 5836 5836 5837 5836 5835 5834 5834 5834 5834 5836 5835 5836 5836 5836 5837 5836 5837
5764 5769 5773 5778 5782 5786 5789 5792 5795 5798 5801 5804 5807 5811 5815 5818 5818 5819 5821 5822 5824 5825 5827 5828 5828 5829 5830 5829 5830 5828 5830 5830 5829 5829 5827 5829 5829 5830 5830 5831 5831 5831 5831 5831 5831
5752 5758 5763 5767 5772 5776 5780 5783 5787 5789 5792 5796 5799 5801 5804 5807 5810 5811 5812 5813 5816 5818 5819 5820 5820 5824 5821 5820 5821 5822 5823 5824 5822 5821 5820 5821 5823 5823 5824 5824 5824 5824 5824 5825 5825
5740 5746 5752 5756 5761 5766 5769 5772 5776 5778 5781 5784 5787 5791 5794 5797 5800 5802 5803 5805 5807 5809 5809 5812 5813 5815 5814 5814 5815 5815 5815 5817 5814 5812 5811 5813 5814 5817 5815 5818 5817 5817 5817 5818 5817
5727 5733 5739 5744 5750 5756 5759 5761 5763 5765 5766 5775 5777 5780 5785 5788 5789 5792 5794 5796 5799 5799 5803 5801 5803 5806 5807 5806 5807 5808 5807 5809 5806 5804 5804 5803 5806 5808 5810 5808 5810 5809 5810 5810 5810
5714 5720 5725 5731 5739 5745 5749 5749 5751 5754 5753 5760 5767 5767 5772 5776 5777 5783 5785 5789 5790 5791 5791 5790 5792 5799 5797 5797 5798 5798 5798 5800 5799 5796 5796 5793 5793 5800 5802 5802 5802 5802 5802 5802 5803
5703 5709 5714 5721 5726 5734 5738 5735 5739 5743 5741 5747 5749 5758 5762 5766 5768 5772 5777 5778 5779 5782 5783 5782 5785 5786 5788 5791 5789 5789 5790 5791 5790 5789 5785 5786 5785 5790 5794 5795 5793 5793 5794 5795 5795
5690 5696 5701 5707 5715 5725 5721 5722 5725 5728 5728 5731 5736 5743 5750 5755 5758 5761 5766 5768 5770 5772 5773 5773 5776 5778 5780 5782 5780 5780 5781 5781 5780 5778 5771 5780 5780 5779 5782 5787 5785 5785 5785 5786 5786
5679 5683 5688 5695 5704 5709 5706 5705 5705 5710 5722 5723 5725 5729 5738 5744 5749 5751 5755 5757 5760 5762 5763 5767 5767 5769 5770 5771 5772 5772 5772 5770 5767 5765 5767 5768 5769 5771 5771 5777 5777 5777 5777 5777 5777
5667 5669 5675 5682 5687 5689 5687 5689 5681 5714 5714 5714 5715 5718 5724 5733 5737 5741 5744 5747 5751 5753 5753 5755 5758 5759 5763 5763 5761 5761 5762 5761 5756 5756 5758 5756 5755 5760 5764 5765 5767 5769 5769 5769 5768
5652 5656 5658 5670 5672 5673 5671 5660 5679 5699 5704 5701 5700 5705 5712 5719 5726 5730 5733 5738 5741 5744 5745 5744 5745 5748 5750 5750 5750 5749 5748 5755 5748 5747 5743 5744 5747 5750 5753 5755 5755 5757 5759 5759 5760
5636 5640 5644 5655 5657 5656 5646 5648 5674 5681 5685 5686 5688 5695 5700 5707 5712 5718 5722 5729 5731 5735 5733 5731 5732 5734 5736 5737 5739 5740 5739 5740 5739 5736 5733 5734 5735 5738 5742 5742 5743 5746 5747 5749 5749
5620 5621 5632 5638 5641 5631 5625 5643 5666 5661 5662 5669 5676 5680 5688 5690 5698 5703 5709 5716 5718 5723 5719 5720 5722 5723 5722 5723 5729 5728 5725 5726 5726 5725 5723 5723 5726 5727 5727 5731 5734 5735 5736 5737 5737
5603 5604 5614 5619 5617 5611 5615 5644 5642 5643 5646 5653 5658 5665 5669 5676 5683 5689 5695 5702 5703 5705 5704 5708 5705 5707 5708 5708 5712 5710 5713 5712 5712 5714 5714 5714 5716 5715 5716 5719 5721 5723 5726 5726 5726
5582 5591 5594 5599 5593 5598 5613 5618 5622 5629 5635 5639 5646 5649 5657 5663 5668 5676 5681 5688 5687 5690 5691 5694 5691 5692 5693 5692 5693 5697 5705 5704 5704 5702 5704 5702 5705 5706 5708 5709 5710 5711 5712 5711 5710
5565 5570 5577 5576 5584 5589 5598 5603 5609 5617 5618 5625 5631 5633 5641 5648 5652 5661 5667 5669 5675 5678 5678 5677 5676 5678 5680 5683 5683 5686 5689 5691 5689 5688 5692 5691 5695 5695 5697 5697 5698 5699 5699 5696 5695
5544 5549 5559 5565 5566 5574 5581 5594 5598 5598 5607 5609 5612 5620 5626 5631 5639 5646 5653 5653 5658 5666 5663 5661 5661 5665 5669 5672 5671 5668 5672 5674 5674 5681 5674 5686 5681 5683 5684 5684 5686 5686 5684 5684 5681
5524 5534 5545 5551 5556 5558 5565 5571 5582 5592 5591 5595 5598 5611 5611 5615 5628 5636 5642 5641 5645 5647 5646 5647 5648 5650 5652 5658 5658 5656 5659 5660 5661 5664 5663 5670 5669 5668 5673 5674 5672 5673 5670 5668 5666
5509 5522 5528 5534 5543 5549 5550 5559 5568 5579 5573 5583 5591 5593 5595 5611 5622 5624 5620 5622 5626 5628 5631 5633 5635 5635 5636 5644 5641 5632 5648 5648 5650 5650 5653 5650 5661 5658 5654 5657 5657 5655 5652 5652 5651
Wind_Speed
30 29 29 28 26 25 23 21 19 18 17 15 13 12 10 8 8 7 8 9 11 11 11 11 11 11 10 10 11 12 13 13 13 14 13 10 9 8 7 8 8 5 6 6 7
32 31 30 29 28 27 26 25 23 21 19 17 16 14 12 11 10 9 10 11 12 13 14 14 14 14 13 14 15 16 17 16 15 16 15 11 11 10 10 9 9 10 8 9 9
35 34 33 32 30 29 28 26 25 24 22 21 19 18 16 14 12 13 13 14 14 15 16 17 17 18 18 17 18 19 19 18 18 17 15 12 13 12 12 11 12 11 12 11 11
38 37 35 34 33 32 30 29 27 25 24 24 23 22 20 18 16 16 16 16 16 18 18 19 20 21 21 21 21 21 20 21 21 18 14 13 15 14 14 14 14 13 13 13 12
41 40 39 38 36 35 33 32 30 29 28 27 26 25 23 23 21 19 19 19 18 18 19 22 23 24 25 24 22 22 22 22 21 18 17 16 17 16 17 16 16 15 14 14 14
43 43 42 41 39 38 36 35 33 32 31 31 30 28 27 26 25 23 22 22 22 22 22 22 24 24 25 24 24 24 23 23 21 20 20 19 19 18 20 18 17 16 17 16 15
45 45 44 43 42 41 39 39 37 36 35 34 34 33 32 30 29 27 26 26 26 25 26 26 26 27 27 27 27 27 26 25 25 24 22 23 21 20 19 19 18 18 19 19 19
48 47 47 47 46 44 43 43 41 40 39 38 38 37 35 34 33 32 31 30 29 30 29 28 29 29 29 29 29 29 28 28 27 27 25 24 22 21 21 20 19 19 20 20 21
53 51 49 49 48 47 46 46 45 44 43 42 41 41 39 37 36 36 35 34 34 32 30 30 31 31 30 30 32 30 30 30 29 29 28 26 24 21 24 22 22 23 23 23 23
56 55 54 53 52 50 49 48 47 47 47 46 45 44 43 39 40 40 40 38 37 35 34 34 34 34 32 34 32 35 32 30 30 30 30 28 26 24 27 27 26 26 26 26 26
57 57 57 57 55 53 52 52 52 52 50 48 49 48 48 45 44 44 44 42 39 38 38 37 38 32 33 36 35 33 33 31 33 32 34 32 31 30 28 28 29 30 28 27 26
60 58 59 58 59 56 54 54 53 54 53 52 53 52 51 49 48 46 46 46 43 40 40 37 38 34 37 37 36 37 37 32 33 35 39 36 34 32 33 27 31 31 31 30 30
68 62 63 60 60 59 56 55 55 55 58 55 56 55 53 52 51 49 48 47 45 46 42 45 44 39 38 40 39 37 37 34 37 38 40 41 37 35 32 33 30 33 32 32 33
65 72 65 69 65 60 57 55 55 56 60 63 58 60 58 56 59 55 52 50 49 47 45 46 45 36 38 39 37 38 39 38 39 41 40 44 43 37 34 33 33 33 33 34 34
60 62 70 70 70 65 57 56 58 56 66 68 68 64 59 57 57 52 47 45 44 42 42 43 40 37 37 35 38 41 40 39 41 43 46 45 46 37 34 33 32 33 34 34 35
62 59 53 61 66 66 66 64 61 60 69 69 66 60 58 57 57 55 48 47 46 42 41 42 39 36 36 35 40 41 41 42 44 47 53 44 45 42 40 31 35 34 35 34 36
66 64 52 57 61 62 61 69 68 72 68 67 66 65 58 54 50 46 44 42 42 43 43 41 40 39 38 38 37 38 38 42 48 52 51 49 45 44 43 35 34 34 34 35 35
69 68 61 64 62 61 73 69 78 64 64 66 68 66 61 53 52 51 46 41 39 37 38 38 37 37 37 40 46 47 46 45 50 52 49 50 50 45 40 40 35 34 35 35 35
67 64 71 65 57 62 66 70 72 58 72 72 70 67 64 58 53 49 46 45 43 41 43 45 46 45 43 46 47 50 53 46 50 51 55 53 49 47 44 39 38 35 34 34 33
66 68 73 65 54 66 66 73 74 64 73 78 75 72 68 64 60 54 50 48 47 44 43 49 49 50 53 52 53 51 53 52 51 53 55 53 51 46 43 43 41 37 36 35 37
65 63 68 63 69 73 76 65 56 62 64 77 76 72 69 68 66 60 56 53 52 47 50 53 53 55 55 56 52 51 49 50 51 52 53 54 50 47 47 46 43 42 40 39 39
67 75 69 60 67 69 68 55 63 62 66 67 72 71 73 73 70 65 61 59 56 55 57 53 55 55 58 57 53 56 52 51 53 54 52 51 46 51 51 49 47 44 43 42 45
75 73 72 64 71 71 63 62 63 62 61 68 69 71 76 74 72 67 64 61 62 60 60 56 55 58 58 60 58 55 47 47 46 50 47 52 49 51 51 50 49 46 45 46 51
72 75 69 70 70 72 67 64 68 61 61 58 64 68 68 68 69 68 66 68 64 61 60 59 65 63 59 53 54 53 50 48 47 48 47 49 47 48 51 51 49 49 51 55 56
75 77 73 72 78 74 70 72 66 63 59 58 65 65 64 68 71 68 66 71 70 67 66 66 64 58 56 49 50 53 51 50 52 48 54 47 51 50 52 55 54 55 59 60 62
73 73 77 71 67 74 77 73 73 63 67 65 66 61 70 72 66 65 63 64 68 62 58 55 54 50 50 48 48 51 53 52 51 53 59 55 56 58 56 56 61 62 65 66 66
75 75 79 75 74 74 76 75 74 70 72 68 61 64 71 60 60 62 66 64 61 55 58 59 60 57 52 51 55 62 49 52 53 55 53 61 55 58 61 59 60 64 69 69 68
Wind_Direction
203 203 201 198 199 198 197 198 200 199 197 194 194 195 197 203 209 213 226 225 230 234 232 235 238 244 256 268 281 294 302 306 310 312 309 290 259 261 273 283 293 293 276 261 255
202 202 203 204 203 204 204 203 205 207 207 207 208 210 214 221 229 231 242 246 245 245 244 245 249 255 260 271 282 291 295 298 300 302 298 279 266 269 270 262 268 277 281 282 275
207 207 207 208 209 210 213 215 213 213 214 215 216 220 225 230 237 243 246 252 252 252 251 253 255 259 264 271 280 285 289 292 296 295 287 267 262 278 275 265 262 267 273 275 272
211 213 213 213 215 215 218 219 220 220 220 221 223 226 231 236 242 251 252 254 257 255 255 255 258 261 266 272 278 281 284 289 292 285 275 267 265 278 276 271 265 263 271 279 282
215 215 217 218 218 220 220 222 224 225 226 227 229 232 235 239 244 250 256 257 259 260 259 260 260 263 268 272 273 278 285 287 286 276 276 271 270 274 274 269 269 269 269 266 266
219 219 219 221 222 223 224 226 227 229 229 232 234 236 240 243 246 249 254 259 260 262 264 265 264 264 266 269 271 276 285 286 277 274 278 275 271 272 269 267 268 270 268 264 263
225 224 223 223 226 227 227 230 230 233 234 236 239 241 243 248 249 252 257 261 263 264 266 267 266 267 267 269 271 274 281 282 274 273 274 272 272 266 267 267 269 268 266 265 265
229 230 229 228 229 230 232 233 234 235 237 240 242 243 245 248 252 255 260 263 264 268 268 267 267 267 268 270 271 273 276 276 272 272 271 267 265 265 266 265 269 268 267 269 269
231 231 232 233 234 234 235 236 238 239 241 242 244 247 248 249 254 257 261 263 266 267 265 268 269 269 269 270 269 271 272 270 271 271 267 264 262 263 265 268 270 271 270 268 270
234 234 233 235 237 237 239 239 241 242 243 245 246 249 250 251 254 258 261 263 264 262 264 269 269 267 269 269 269 266 267 270 269 262 264 260 260 264 270 269 272 274 269 266 267
234 236 236 236 236 239 241 243 244 245 246 248 248 250 253 254 256 259 261 262 262 263 267 267 266 269 264 264 266 269 268 266 266 262 262 259 257 267 266 271 277 277 273 269 269
234 235 237 237 238 237 240 243 245 247 246 248 250 250 252 255 256 257 260 262 263 263 263 264 267 264 265 266 266 266 267 265 259 262 261 260 257 258 270 266 275 275 270 267 267
233 235 236 237 238 239 239 242 245 247 249 246 250 251 253 255 256 257 258 262 263 264 266 266 266 262 264 265 267 266 263 260 260 262 262 262 259 259 259 270 268 268 265 267 268
237 232 235 237 238 240 241 243 245 247 250 248 247 251 251 254 256 258 260 264 265 265 264 263 264 262 261 262 262 261 261 262 263 263 264 261 263 260 261 265 267 263 264 265 268
238 243 236 240 239 238 240 243 245 247 249 249 248 248 252 254 257 256 259 259 261 260 259 260 258 256 256 259 261 264 265 264 264 266 264 264 267 265 263 263 262 260 263 267 269
243 242 244 247 244 240 242 241 241 242 245 248 250 250 248 251 255 259 257 256 258 257 256 255 257 255 257 260 261 264 265 267 265 265 264 267 271 266 267 261 259 262 265 266 267
242 245 250 240 241 237 244 246 241 239 248 250 251 254 252 250 253 256 256 255 255 255 255 256 255 256 255 257 259 263 265 267 266 265 268 272 269 265 268 265 261 261 262 265 265
237 244 244 245 242 240 244 245 245 253 248 257 255 254 254 252 251 252 252 252 250 253 253 249 248 249 253 260 261 261 265 264 272 274 273 270 269 271 269 271 270 266 265 266 264
237 241 245 242 248 248 245 242 246 249 248 248 250 254 257 254 251 251 251 253 256 261 258 253 250 255 258 257 262 263 261 268 271 272 270 270 271 270 271 273 270 269 271 270 264
235 237 241 243 242 238 251 249 243 248 247 247 250 254 256 257 257 252 253 254 257 259 257 262 264 260 258 258 261 270 271 265 266 270 271 272 272 273 273 271 273 275 273 273 273
233 240 239 241 243 250 247 252 245 247 248 246 250 253 253 257 255 256 255 255 257 259 258 261 265 266 268 265 264 267 268 264 265 265 269 270 271 274 271 273 278 279 278 277 274
224 229 235 236 233 241 247 249 246 243 245 245 246 249 252 253 253 254 255 256 258 259 262 268 269 271 270 266 265 263 262 261 263 265 262 267 268 271 274 279 280 283 284 281 277
222 230 236 235 242 238 244 243 248 248 246 246 249 252 251 254 254 252 254 257 259 261 263 270 268 273 269 263 259 262 269 270 271 267 267 266 271 273 274 276 280 283 284 282 281
225 230 229 240 240 244 241 248 248 247 254 252 250 251 250 250 251 251 253 256 257 262 264 265 267 264 264 267 265 262 264 264 263 261 269 269 273 272 274 275 277 280 281 281 284
223 229 227 232 241 242 238 241 245 246 248 249 250 248 249 249 249 251 252 255 260 263 265 266 266 263 260 260 259 263 263 260 257 269 261 271 269 270 270 269 273 275 277 282 280
230 226 224 231 236 247 249 246 246 248 250 249 250 248 248 250 251 255 261 262 261 261 256 263 260 259 254 254 255 259 264 262 257 259 262 265 269 269 275 275 273 276 277 278 278
230 224 225 226 231 239 248 249 246 244 247 246 248 248 250 250 255 259 260 261 255 255 256 262 263 257 262 260 261 265 260 261 264 265 268 266 274 271 272 276 275 275 275 276 276